Location: Aldenham
(51.6667°N, 0.3500°W)
Time: 15:41:10
(UTC+00:00)

Transit 2A Rocket - Pass Details

Date: 17 February 2026
Orbit: 583 x 900 km, 66.7° (Epoch: 10 March)

Event Time Altitude Azimuth Distance (km) Brightness Sun altitude
Rises 17:48:39 0° 242° (WSW) 3,508 10.3 -5.1°
Reaches altitude 10° 17:51:18 10° 249° (WSW) 2,576 9.5 -5.5°
Maximum altitude 17:57:02 44° 321° (NW) 1,225 6.3 -6.4°
Drops below altitude 10° 18:02:40 10° 33° (NNE) 2,518 7.3 -7.3°
Enters shadow 18:05:09 - 40° (NE) 3,393 7.9 -7.7°
